Date String (YYYY-MM-DD hh:mm:ss) UTC,Instrument flags,absolute air pressure of the measurement (hPa),sample flow rate (lpm),inlet stack bypass flow (lpm),air temperature of the measurement (°C),ambient temperature measured by the external sensor (°C),aerosol sample conditioner tube jacket temperature (°C),OPC LED temperature (°C),internal box temperature (°C),relative humidity of the measurement (%),span deviation,mass concentration of particles derived from Lorenz-Mie calculation of OPC scattering (μg/m³),mass concentration of particles derived from Lorenz-Mie calculation of OPC scattering (μg/m³),mass concentration of particles derived from Lorenz-Mie calculation of OPC scattering (μg/m³)
DateTimeUTC,F1_M11,P_M11,Q1_M11,Q2_M11,T1_M11,T2_M11,T3_M11,T4_M11,T5_M11,U1_M11,ZSPAN_M11,X2_M11,X0_M11,X1_M11
2024-01-08 16:00:00,SystemResetWarning,0823.1,5.00,000.00,018.8,018.1,000.0,027.2,020.0,11.6,0000.0,0002.44,0004.78,0001.84
2024-01-08 16:01:00,SystemResetWarning,0823.1,5.00,000.00,018.8,018.0,000.0,027.2,020.0,11.6,0000.0,0002.45,0004.36,0001.85
2024-01-08 16:02:00,SystemResetWarning,0823.1,5.01,000.00,018.8,018.0,000.0,027.2,020.0,11.6,0000.0,0002.43,0004.34,0001.86
2024-01-08 16:03:00,SystemResetWarning,0823.1,5.00,000.00,018.8,018.0,000.0,027.2,020.0,11.5,0000.0,0002.46,0004.40,0001.88
2024-01-08 16:04:00,SystemResetWarning,0823.2,5.00,000.00,018.8,018.0,000.0,027.2,020.0,11.5,0000.0,0002.47,0004.41,0001.90
2024-01-08 16:05:00,SystemResetWarning,0823.3,5.00,000.00,018.8,018.0,000.0,027.2,020.0,11.5,0000.0,0002.49,0004.43,0001.90
2024-01-08 16:06:00,SystemResetWarning,0823.3,5.00,000.00,018.8,018.0,000.0,027.2,020.0,11.5,0000.0,0002.49,0004.26,0001.92
2024-01-08 16:07:00,SystemResetWarning,0823.3,4.99,000.00,018.8,018.0,000.0,027.2,020.0,11.5,0000.0,0002.46,0003.74,0001.94
2024-01-08 16:08:00,SystemResetWarning,0823.3,5.00,000.00,018.8,018.0,000.0,027.2,020.0,11.5,0000.0,0002.45,0003.74,0001.96
2024-01-08 16:09:00,SystemResetWarning,0823.3,5.00,000.00,018.8,018.1,000.0,027.2,020.0,11.5,0000.0,0002.47,0003.79,0001.98
2024-01-08 16:10:00,SystemResetWarning,0823.4,5.00,000.00,018.8,018.1,000.0,027.2,020.0,11.6,0000.0,0002.42,0003.70,0001.99
2024-01-08 16:11:00,SystemResetWarning,0823.5,4.99,000.00,018.8,018.1,000.0,027.2,020.0,11.6,0000.0,0002.37,0003.57,0001.99
2024-01-08 16:12:00,SystemResetWarning,0823.4,5.00,000.00,018.8,018.1,000.0,027.2,020.0,11.6,0000.0,0002.40,0003.61,0002.01
2024-01-08 16:13:00,SystemResetWarning,0823.4,5.00,000.00,018.8,018.1,000.0,027.2,020.0,11.6,0000.0,0002.45,0003.70,0002.02
2024-01-08 16:14:00,SystemResetWarning,0823.4,5.00,000.00,018.8,018.1,000.0,027.2,020.0,11.6,0000.0,0002.43,0003.64,0002.02
2024-01-08 16:15:00,SystemResetWarning,0823.4,5.00,000.00,018.8,018.1,000.0,027.2,020.0,11.6,0000.0,0002.40,0003.56,0002.01
2024-01-08 16:16:00,SystemResetWarning,0823.4,5.00,000.00,018.8,018.1,000.0,027.2,020.0,11.6,0000.0,0002.38,0003.52,0002.02
2024-01-08 16:17:00,SystemResetWarning,0823.4,5.00,000.00,018.8,018.1,000.0,027.2,020.0,11.5,0000.0,0002.39,0003.51,0002.02
2024-01-08 16:18:00,SystemResetWarning,0823.4,5.00,000.00,018.8,018.1,000.0,027.1,020.0,11.5,0000.0,0002.40,0003.70,0002.01
2024-01-08 16:19:00,SystemResetWarning,0823.4,5.00,000.00,018.8,018.1,000.0,027.1,020.0,11.4,0000.0,0002.40,0004.06,0002.00
2024-01-08 16:20:00,SystemResetWarning,0823.4,5.01,000.00,018.8,018.1,000.0,027.2,020.0,11.4,0000.0,0002.37,0003.98,0001.98
2024-01-08 16:21:00,SystemResetWarning,0823.4,5.01,000.00,018.8,018.1,000.0,027.1,020.0,11.3,0000.0,0002.39,0004.10,0001.97
2024-01-08 16:22:00,SystemResetWarning,0823.5,5.00,000.00,018.8,018.1,000.0,027.1,020.0,11.3,0000.0,0002.45,0004.35,0001.97
2024-01-08 16:23:00,SystemResetWarning,0823.5,4.99,000.00,018.8,018.1,000.0,027.1,020.0,11.3,0000.0,0002.43,0004.36,0001.95
2024-01-08 16:24:00,SystemResetWarning,0823.5,4.99,000.00,018.8,018.1,000.0,027.1,020.0,11.3,0000.0,0002.44,0004.73,0001.95
2024-01-08 16:25:00,SystemResetWarning,0823.5,5.01,000.00,018.8,018.1,000.0,027.1,020.0,11.3,0000.0,0002.46,0007.16,0001.94
2024-01-08 16:26:00,SystemResetWarning,0823.5,5.01,000.00,018.8,018.1,000.0,027.1,020.0,11.3,0000.0,0002.52,0008.04,0001.94
2024-01-08 16:27:00,SystemResetWarning,0823.6,5.00,000.00,018.8,018.1,000.0,027.1,020.1,11.4,0000.0,0002.55,0008.10,0001.94
2024-01-08 16:28:00,SystemResetWarning,0823.5,4.99,000.00,018.8,018.1,000.0,027.1,020.0,11.4,0000.0,0002.55,0008.11,0001.93
2024-01-08 16:29:00,SystemResetWarning,0823.5,4.99,000.00,018.8,018.1,000.0,027.1,020.1,11.4,0000.0,0002.55,0008.01,0001.93
2024-01-08 16:30:00,SystemResetWarning,0823.5,5.00,000.00,018.8,018.1,000.0,027.1,020.1,11.3,0000.0,0002.57,0007.84,0001.93
2024-01-08 16:31:00,SystemResetWarning,0823.5,5.01,000.00,018.8,018.1,000.0,027.1,020.1,11.3,0000.0,0002.56,0007.84,0001.93
2024-01-08 16:32:00,SystemResetWarning,0823.6,5.00,000.00,018.8,018.2,000.0,027.1,020.1,11.3,0000.0,0002.56,0007.79,0001.92
2024-01-08 16:33:00,SystemResetWarning,0823.6,4.99,000.00,018.8,018.2,000.0,027.1,020.1,11.2,0000.0,0002.50,0007.63,0001.92
2024-01-08 16:34:00,SystemResetWarning,0823.6,5.00,000.00,018.8,018.2,000.0,027.1,020.1,11.2,0000.0,0002.49,0007.59,0001.93
2024-01-08 16:35:00,SystemResetWarning,0823.6,5.00,000.00,018.8,018.2,000.0,027.1,020.0,11.2,0000.0,0002.45,0007.51,0001.91
2024-01-08 16:36:00,SystemResetWarning,0823.6,5.00,000.00,018.8,018.1,000.0,027.1,020.0,11.1,0000.0,0002.45,0005.52,0001.93
2024-01-08 16:37:00,SystemResetWarning,0823.6,5.00,000.00,018.8,018.1,000.0,027.1,020.0,11.1,0000.0,0002.41,0003.75,0001.92
2024-01-08 16:38:00,SystemResetWarning,0823.6,5.01,000.00,018.8,018.1,000.0,027.2,020.0,11.1,0000.0,0002.39,0003.70,0001.92
2024-01-08 16:39:00,SystemResetWarning,0823.7,5.00,000.00,018.8,018.1,000.0,027.1,020.0,11.0,0000.0,0002.37,0003.65,0001.92
2024-01-08 16:40:00,SystemResetWarning,0823.7,4.99,000.00,018.8,018.1,000.0,027.2,020.0,11.0,0000.0,0002.36,0003.62,0001.92
2024-01-08 16:41:00,SystemResetWarning,0823.7,4.99,000.00,018.8,018.1,000.0,027.2,020.0,11.0,0000.0,0002.32,0003.69,0001.92
2024-01-08 16:42:00,SystemResetWarning,0823.7,5.00,000.00,018.8,018.1,000.0,027.2,020.0,10.9,0000.0,0002.31,0004.25,0001.93
2024-01-08 16:43:00,SystemResetWarning,0823.8,5.00,000.00,018.8,018.1,000.0,027.1,020.0,10.9,0000.0,0002.29,0004.24,0001.93
2024-01-08 16:44:00,SystemResetWarning,0823.7,5.00,000.00,018.8,018.1,000.0,027.1,020.0,10.9,0000.0,0002.28,0004.24,0001.93
2024-01-08 16:45:00,SystemResetWarning,0823.8,5.00,000.00,018.8,018.1,000.0,027.1,020.0,10.9,0000.0,0002.28,0004.27,0001.92
2024-01-08 16:46:00,SystemResetWarning,0823.8,5.00,000.00,018.8,018.1,000.0,027.2,020.0,10.9,0000.0,0002.30,0004.23,0001.93
2024-01-08 16:47:00,SystemResetWarning,0823.8,5.00,000.00,018.8,018.1,000.0,027.1,020.0,10.9,0000.0,0002.31,0004.20,0001.92
2024-01-08 16:48:00,SystemResetWarning,0823.8,5.00,000.00,018.8,018.1,000.0,027.2,020.0,10.9,0000.0,0002.30,0004.61,0001.93
2024-01-08 16:49:00,SystemResetWarning,0823.8,5.00,000.00,018.8,018.1,000.0,027.2,020.0,10.9,0000.0,0002.33,0005.29,0001.92
2024-01-08 16:50:00,SystemResetWarning,0823.8,5.00,000.00,018.8,018.1,000.0,027.2,020.0,10.9,0000.0,0002.36,0005.34,0001.92
2024-01-08 16:51:00,SystemResetWarning,0823.8,5.00,000.00,018.8,018.1,000.0,027.1,020.0,10.9,0000.0,0002.37,0005.39,0001.92
2024-01-08 16:52:00,SystemResetWarning,0823.8,5.00,000.00,018.8,018.1,000.0,027.1,020.0,10.9,0000.0,0002.38,0005.42,0001.91
2024-01-08 16:53:00,SystemResetWarning,0823.8,5.00,000.00,018.8,018.1,000.0,027.1,020.0,10.9,0000.0,0002.39,0004.81,0001.91
2024-01-08 16:54:00,SystemResetWarning,0823.8,5.00,000.00,018.8,018.1,000.0,027.1,020.0,11.0,0000.0,0002.40,0005.47,0001.89
2024-01-08 16:55:00,SystemResetWarning,0823.8,5.00,000.00,018.8,018.1,000.0,027.1,020.0,11.0,0000.0,0002.42,0005.72,0001.90
2024-01-08 16:56:00,SystemResetWarning,0823.8,5.01,000.00,018.8,018.1,000.0,027.1,020.0,11.0,0000.0,0002.42,0005.82,0001.89
2024-01-08 16:57:00,SystemResetWarning,0823.8,5.01,000.00,018.8,018.1,000.0,027.2,020.0,11.0,0000.0,0002.38,0005.77,0001.87
2024-01-08 16:58:00,SystemResetWarning,0823.8,5.00,000.00,018.8,018.1,000.0,027.2,020.0,11.0,0000.0,0002.43,0005.87,0001.86
2024-01-08 16:59:00,SystemResetWarning,0823.8,5.00,000.00,018.8,018.1,000.0,027.1,020.0,11.1,0000.0,0002.43,0005.43,0001.85
